SCP
-0 -0 -0 -0 -0 -0 -0 -0 -0 -0 -0 -0 -0 -0 -0 -0 -0 -0 -0 -0 -0 -0 -0 0 0 0 0
0 -0 -0 -0 -0 -0 -0 -0 -0 -0 -0 -0 -0 -0 -0 -0 -0 -0 0 0 0 0 0 0 0 0 0
0 0 -0 -0 -0 -0 -0 -0 -0 0 0 0 0 -0 -0 -0 -0 0 0 0 0 0 0 0 0 0 0
0 0 0 0 0 0 0 0 0 0 0 0 0 0 0 0 0 0 0 0 0 0 0 0 0 0 0
0 0 0 0 0 0 0 0 0 0 0 0 0 0 0 0 0 0 0 0 0 0 0 0 0 0 0
0 0 0 0 0 0 0 0 0 0 0 0 0 0 0 0 0 0 0 0 0 0 0 0 0 0 0
0 0 0 0 0 0 0 0 0 0 0 0 0 0 0 0 0 0 0 0 0 0 0 0 0 0 0
0 0 0 0 0 0 0 0 0 0 0 0 0 0 0 0 0 0 0 0 0 0 0 0 0 0 0
0 0 0 0 0 0 0 0 0 0 0 0 0 0 0 0 0 0 0 0 0 0 0 0 0 0 0
0 0 0 0 0 0 0 0 0 0 0 0 0 0 0 0 0 0 0 0 0 0 0 0 0 0 0
0 0 0 0 0 0 0 0 0 0 0 0 0 0 0 0 0 0 0 0 0 0 0 0 0 0 0
0 0 0 0 0 0 0 0 0 0 0 0 0 0 0 0 0 0 0 0 0 0 0 0 0 0 0
0 0 0 0 0 0 0 0 0 0 0 0 0 0 0 0 0 0 0 0 0 0 0 0 0 0 0
0 0 0 0 0 0 0 0 0 0 0 0 0 0 0 0 0 0 0 0 0 0 0 0 0 0 0
0 0 0 0 0 0 0 0 0 0 0 0 0 0 0 0 0 0 0 0 0 0 0 0 0 0 0
0 0 0 0 0 0 0 0 0 0 0 0 0 0 0 0 0 0 0 0 0 0 0 0 0 0 0
Wind_Speed_500mb
18 17 15 13 12 8 5 3 3 2 3 11 17 22 25 25 26 26 24 24 20 18 17 15 12 11 14
22 19 16 13 12 9 6 4 3 4 2 4 13 13 21 23 24 22 25 23 22 20 17 13 11 10 12
31 26 22 17 13 12 8 7 7 7 6 14 11 14 19 20 21 29 29 26 26 25 24 22 19 17 17
36 25 21 21 19 12 9 7 8 8 9 10 10 9 12 15 19 25 29 29 27 26 28 28 27 25 23
29 36 25 18 21 22 16 14 16 14 19 9 5 1 9 12 10 17 23 27 30 30 29 27 27 26 28
29 31 36 31 29 27 24 20 23 24 18 16 9 6 2 7 5 9 16 20 22 24 28 26 24 25 24
33 37 36 40 34 30 24 26 23 20 18 13 9 5 5 11 12 10 8 9 10 11 9 14 16 17 14
38 39 39 34 34 33 28 25 23 20 18 16 13 11 15 12 13 13 12 12 9 11 13 14 17 16 14
38 40 40 36 29 25 23 22 20 19 17 14 12 11 9 2 12 9 10 10 2 10 11 14 13 13 13
40 44 42 38 33 27 20 22 22 18 13 12 13 11 11 10 8 5 3 3 6 6 8 12 11 12 13
45 46 43 39 33 29 25 20 19 17 16 16 13 11 10 7 6 5 2 5 7 10 10 7 8 13 13
44 44 41 38 35 32 27 24 21 18 18 18 16 15 12 9 7 3 4 8 14 16 12 9 7 14 10
47 48 47 44 39 36 31 29 24 20 22 20 20 18 14 10 9 8 9 11 12 16 9 14 11 8 10
48 48 47 44 44 40 39 33 31 27 24 21 19 17 15 12 11 10 10 13 16 17 16 8 5 6 6
51 51 52 50 49 46 43 41 36 30 27 22 18 14 11 8 8 11 15 17 22 22 22 14 4 2 27
51 51 52 51 53 52 48 43 39 31 25 20 14 10 7 7 10 14 19 23 22 25 24 25 21 21 15
Wind_Direction_500mb
203 204 199 189 182 173 159 124 114 135 41 43 47 36 34 34 39 42 48 49 54 58 61 60 50 29 30
212 215 215 210 202 195 195 196 236 233 263 41 68 30 31 25 32 33 38 40 41 43 47 51 41 22 32
202 213 213 214 211 218 213 235 246 242 180 125 75 42 42 39 31 22 29 31 37 37 34 26 17 7 14
204 187 201 221 218 218 226 237 225 198 167 130 118 86 38 35 31 18 24 28 29 35 34 29 23 17 13
206 201 185 195 195 200 196 204 208 196 177 172 180 102 36 339 354 12 16 18 24 25 26 26 25 21 19
209 189 188 195 198 206 204 206 197 180 189 190 200 221 222 290 326 349 352 358 11 22 19 17 21 18 13
197 192 186 200 206 212 198 203 205 203 202 203 173 223 258 293 311 326 311 323 355 342 359 356 354 3 9
195 183 182 191 206 199 199 196 201 205 214 224 230 253 275 280 298 302 307 316 313 313 301 335 336 331 336
187 176 183 184 187 187 194 198 196 206 208 221 236 220 205 261 265 252 266 263 212 296 324 335 343 343 345
181 179 183 186 183 185 187 184 183 196 199 204 186 175 174 168 154 160 191 265 298 351 1 356 345 344 348
175 180 183 184 190 188 180 190 187 185 190 183 172 166 171 184 186 231 337 352 5 9 22 17 16 25 23
175 178 180 184 185 187 188 196 190 188 182 182 179 179 183 189 189 128 49 28 27 38 37 65 62 52 44
175 176 178 181 182 186 192 185 180 171 152 147 148 141 131 133 113 86 57 48 50 57 52 85 86 42 22
179 180 182 181 179 188 181 176 166 160 149 140 133 128 115 87 77 62 38 23 31 38 47 99 155 196 12
182 182 182 181 180 173 167 162 154 148 140 134 127 111 101 81 56 44 35 26 32 29 24 30 11 334 324
185 188 192 187 176 166 161 157 150 147 144 136 128 114 101 76 54 38 33 28 27 35 30 26 12 359 349
Wind_Speed_850mb
18 17 15 13 12 8 5 3 3 2 3 11 17 22 25 25 26 26 24 24 20 18 17 15 12 11 14
22 19 16 13 12 9 6 4 3 4 2 4 13 13 21 23 24 22 25 23 22 20 17 13 11 10 12
31 26 22 17 13 12 8 7 7 7 6 14 11 14 19 20 21 29 29 26 26 25 24 22 19 17 17
36 25 21 21 19 12 9 7 8 8 9 10 10 9 12 15 19 25 29 29 27 26 28 28 27 25 23
29 36 25 18 21 22 16 14 16 14 19 9 5 1 9 12 10 17 23 27 30 30 29 27 27 26 28
29 31 36 31 29 27 24 20 23 24 18 16 9 6 2 7 5 9 16 20 22 24 28 26 24 25 24
33 37 36 40 34 30 24 26 23 20 18 13 9 5 5 11 12 10 8 9 10 11 9 14 16 17 14
38 39 39 34 34 33 28 25 23 20 18 16 13 11 15 12 13 13 12 12 9 11 13 14 17 16 14
38 40 40 36 29 25 23 22 20 19 17 14 12 11 9 2 12 9 10 10 2 10 11 14 13 13 13
40 44 42 38 33 27 20 22 22 18 13 12 13 11 11 10 8 5 3 3 6 6 8 12 11 12 13
45 46 43 39 33 29 25 20 19 17 16 16 13 11 10 7 6 5 2 5 7 10 10 7 8 13 13
44 44 41 38 35 32 27 24 21 18 18 18 16 15 12 9 7 3 4 8 14 16 12 9 7 14 10
47 48 47 44 39 36 31 29 24 20 22 20 20 18 14 10 9 8 9 11 12 16 9 14 11 8 10
48 48 47 44 44 40 39 33 31 27 24 21 19 17 15 12 11 10 10 13 16 17 16 8 5 6 6
51 51 52 50 49 46 43 41 36 30 27 22 18 14 11 8 8 11 15 17 22 22 22 14 4 2 27
51 51 52 51 53 52 48 43 39 31 25 20 14 10 7 7 10 14 19 23 22 25 24 25 21 21 15
Wind_Direction_850mb
203 204 199 189 182 173 159 124 114 135 41 43 47 36 34 34 39 42 48 49 54 58 61 60 50 29 30
212 215 215 210 202 195 195 196 236 233 263 41 68 30 31 25 32 33 38 40 41 43 47 51 41 22 32
202 213 213 214 211 218 213 235 246 242 180 125 75 42 42 39 31 22 29 31 37 37 34 26 17 7 14
204 187 201 221 218 218 226 237 225 198 167 130 118 86 38 35 31 18 24 28 29 35 34 29 23 17 13
206 201 185 195 195 200 196 204 208 196 177 172 180 102 36 339 354 12 16 18 24 25 26 26 25 21 19
209 189 188 195 198 206 204 206 197 180 189 190 200 221 222 290 326 349 352 358 11 22 19 17 21 18 13
197 192 186 200 206 212 198 203 205 203 202 203 173 223 258 293 311 326 311 323 355 342 359 356 354 3 9
195 183 182 191 206 199 199 196 201 205 214 224 230 253 275 280 298 302 307 316 313 313 301 335 336 331 336
187 176 183 184 187 187 194 198 196 206 208 221 236 220 205 261 265 252 266 263 212 296 324 335 343 343 345
181 179 183 186 183 185 187 184 183 196 199 204 186 175 174 168 154 160 191 265 298 351 1 356 345 344 348
175 180 183 184 190 188 180 190 187 185 190 183 172 166 171 184 186 231 337 352 5 9 22 17 16 25 23
175 178 180 184 185 187 188 196 190 188 182 182 179 179 183 189 189 128 49 28 27 38 37 65 62 52 44
175 176 178 181 182 186 192 185 180 171 152 147 148 141 131 133 113 86 57 48 50 57 52 85 86 42 22
179 180 182 181 179 188 181 176 166 160 149 140 133 128 115 87 77 62 38 23 31 38 47 99 155 196 12
182 182 182 181 180 173 167 162 154 148 140 134 127 111 101 81 56 44 35 26 32 29 24 30 11 334 324
185 188 192 187 176 166 161 157 150 147 144 136 128 114 101 76 54 38 33 28 27 35 30 26 12 359 349